Tracking 31027 objects as of 19-Jul-2025
HD Live streaming from Space Station
objects crossing your sky now

EXPLORER 16

Track EXPLORER 16 now!
10-day predictions
EXPLORER 16 is classified as:


NORAD ID: 506
Int'l Code: 1962-070A
Perigee: 748.3 km
Apogee: 1,153.4 km
Inclination: 52.0 °
Period: 103.9 minutes
Semi major axis: 7321 km
RCS: 0.6378 m2 (medium)
Launch date: December 16, 1962
Source: United States (US)
Launch site: WALLOPS ISLAND (WLPIS)
Your satellite tracking list
STARLINK-31879
Track 1 satellite(s)




NASA's NSSDC Master Catalog

Two Line Element Set (TLE):
1 00506U 62070A   25199.51182602 -.00000089  00000-0  38208-4 0  9990
2 00506  52.0005 250.7600 0276633 127.8246 234.8063 13.85697315162498
Source of the keplerian elements: AFSPC